Location: Ford County Road and Bridge Department
(37.7686°N, 99.9762°W)
Time: 05:47:49
(UTC+00:00)

Atlas Centaur 2 - Pass Details

Date: 18 January 2020
Orbit: 459 x 1310 km, 30.4° (Epoch: 17 February)

Event Time Altitude Azimuth Distance (km) Brightness Sun altitude
Rises 02:16:27 0° 221° (SW) 3,257 5.9 -29.2°
Reaches altitude 10° 02:19:07 10° 208° (SSW) 2,473 5.0 -29.8°
Enters shadow 02:22:21 23° 177° (S) 1,879 3.9 -30.4°
